This demonstration page uses our WeatherBlox Daily Observations layout. Learn more.

39.92423, -83.80882

Hourly Observations for September 21, 2019

Temp ( °F °C ) Dew Point ( °F °C ) Humidity (%) Winds ( mph kmh ) Pressure ( in mb ) Visibility ( mi km ) Precip ( " mm )
12:56 am 00:56 Clear 71 21.7 68 20 90 90 SSW 6 9 30.15 1021 10 16.09344 0 0
1:56 am 01:56 Clear 69 20.6 67 19.4 93 93 SSW 6 9 30.15 1021 10 16.09344 0 0
2:56 am 02:56 Clear 69 20.6 67 19.4 93 93 SW 7 11 30.15 1021 10 16.09344 0 0
3:56 am 03:56 Clear 68 20 67 19.4 96 96 SSW 5 7 30.15 1021 10 16.09344 0 0
4:56 am 04:56 Partly Cloudy 69 20.6 67 19.4 93 93 SSW 6 9 30.18 1022 10 16.09344 0 0
5:56 am 05:56 Cloudy 68 20 68 20 100 100 SW 6 9 30.18 1022 10 16.09344 0.001 0.001
6:48 am 06:48 Cloudy 68 20 68 20 100 100 Calm 30.21 1023 10 16.09344 0 0
6:56 am 06:56 Cloudy 68 20 68 20 100 100 Calm 30.21 1023 10 16.09344 0 0
7:05 am 07:05 Mostly Cloudy 68 20 68 20 100 100 Calm 30.21 1023 10 16.09344 0 0
7:37 am 07:37 Mostly Cloudy with Nearby Thunderstorms 70 21 70 21 100 100 W 8 13 30.21 1023 8 12.874752 0 0
7:44 am 07:44 Cloudy with Light Thunderstorms 70 21 70 21 100 100 WNW 12 19 30.24 1024 7 11.265408 0.001 0.001
7:48 am 07:48 Cloudy with Thunderstorms 70 21 70 21 100 100 WNW 10 17 30.21 1023 8 12.874752 0.01 0.254
7:56 am 07:56 Cloudy with Heavy Thunderstorms 68 20 68 20 100 100 WNW 8 13 30.21 1023 4 6.437376 0.08 2.032
8:56 am 08:56 Cloudy with Light Rain 68 20 68 20 100 100 ENE 6 9 30.24 1024 7 11.265408 0.24 6.096
9:33 am 09:33 Cloudy 70 21 70 21 100 100 SE 5 7 30.24 1024 7 11.265408 0.001 0.001
9:51 am 09:51 Cloudy 70 21 70 21 100 100 SSE 7 11 30.24 1024 7 11.265408 0.001 0.001
9:56 am 09:56 Cloudy 69 20.6 69 20.6 100 100 SSE 7 11 30.24 1024 7 11.265408 0.001 0.001
10:16 am 10:16 Cloudy 70 21 70 21 100 100 SE 6 9 30.24 1024 9 14.484096 0 0
10:36 am 10:36 Cloudy with Light Rain 72 22 72 22 100 100 SE 7 11 30.24 1024 8 12.874752 0.001 0.001
10:56 am 10:56 Mostly Cloudy 73 22.8 72 22.2 96 96 ESE 7 11 30.24 1024 10 16.09344 0.001 0.001
11:39 am 11:39 Cloudy 73 23 72 22 94 94 ESE 10 17 30.24 1024 10 16.09344 0 0
11:56 am 11:56 Mostly Cloudy 75 23.9 73 22.8 94 94 ESE 9 15 30.24 1024 10 16.09344 0 0
12:05 pm 12:05 Mostly Cloudy 75 24 72 22 89 89 SE 9 15 30.24 1024 10 16.09344 0 0
12:56 pm 12:56 Mostly Cloudy 77 25 72 22.2 85 85 SSE 6 9 30.21 1023 10 16.09344 0 0
1:56 pm 13:56 Sunny 82 27.8 70 21.1 67 67 SSE 9 15 30.18 1022 10 16.09344 0 0
2:56 pm 14:56 Mostly Sunny 85 29.4 69 20.6 59 59 SW 10 17 30.15 1021 10 16.09344 0 0
3:56 pm 15:56 Mostly Cloudy 83 28.3 68 20 61 61 SSW 6 9 30.15 1021 10 16.09344 0 0
4:56 pm 16:56 Mostly Cloudy 85 29.4 69 20.6 59 59 W 8 13 30.15 1021 10 16.09344 0.001 0.001
5:56 pm 17:56 Sunny 82 27.8 67 19.4 60 60 SW 7 11 30.12 1020 10 16.09344 0 0
6:56 pm 18:56 Mostly Cloudy 82 27.8 68 20 63 63 Calm 30.12 1020 10 16.09344 0 0
7:56 pm 19:56 Clear 79 26.1 67 19.4 67 67 SSW 3 6 30.12 1020 10 16.09344 0 0
8:56 pm 20:56 Clear 75 23.9 66 18.9 74 74 SSW 5 7 30.15 1021 10 16.09344 0 0
9:56 pm 21:56 Clear 74 23.3 65 18.3 74 74 SSW 3 6 30.15 1021 10 16.09344 0 0
10:56 pm 22:56 Clear 71 21.7 65 18.3 81 81 Calm 30.15 1021 10 16.09344 0 0
11:56 pm 23:56 Clear 68 20 63 17.2 84 84 S 3 6 30.15 1021 10 16.09344 0 0

Powered by AerisWeather